Location: Barrio de Canyet
(41.4665°N, 2.2381°E)
Time: 09:12:07
(UTC+00:00)

Cosmos 540 Rocket - Pass Details

Date: 09 April 2020
Orbit: 741 x 753 km, 74.1° (Epoch: 03 June)

Event Time Altitude Azimuth Distance (km) Brightness Sun altitude
Rises 21:28:23 0° 341° (NNW) 3,208 7.7 -30.5°
Reaches altitude 10° 21:30:46 10° 343° (NNW) 2,278 6.7 -30.8°
Enters shadow 21:34:19 44° 352° (N) 1,026 4.4 -31.3°
